Location: Aciu?a
(46.2833°N, 22.4500°E)
Time: 06:09:20
(UTC+00:00)

Feng Yun 1-1 Rocket - Pass Details

Date: 25 October 2021
Orbit: 830 x 933 km, 99.2° (Epoch: 04 December)

Event Time Altitude Azimuth Distance (km) Brightness Sun altitude
Rises 16:37:07 0° 150° (SSE) 3,429 7.1 -12.8°
Reaches altitude 10° 16:39:29 10° 147° (SSE) 2,510 6.4 -13.2°
Maximum altitude 16:44:57 59° 69° (ENE) 1,021 4.3 -14.2°
Drops below altitude 10° 16:50:37 10° 352° (N) 2,595 6.8 -15.1°
Sets 16:53:05 0° 349° (NNW) 3,554 7.6 -15.6°
